Location: *
(48.6989°S, 169.3601°W)
Time: 12:38:38
(UTC+00:00)

Daily predictions for brighter satellites

Satellite Brightness Start Highest point End
(mag) Time Altitude Azimuth Time Altitude Azimuth Time Altitude Azimuth
Cosmos 2263 Rocket 4.2 15:07:39 23° SE 15:07:58 23° SE 15:12:28 10° E
CZ-4C R/B 3.6 15:35:02 36° S 15:35:02 36° S 15:39:13 10° SE
USA 229 DEB 3.8 15:35:51 64° NE 15:35:51 64° NE 15:41:19 10° NE
USA 229 3.8 15:35:56 65° NE 15:35:56 65° NE 15:41:25 10° NE
Cosmos 1980 Rocket 3.7 15:32:43 24° NNE 15:35:07 33° ENE 15:40:08 10° SE
Cosmos 2369 4.3 15:38:46 53° E 15:38:46 53° E 15:43:42 10° SE
Okean O Rocket 3.5 15:34:22 10° NE 15:37:18 29° E 15:37:18 29° E
BREEZE-M R/B 4.3 15:38:52 82° SE 15:38:52 82° SE 15:49:57 10° E
Cosmos 1898 Rocket 4.4 15:45:45 45° NE 15:45:45 45° NE 15:49:35 10° NNE
NOSS 3-1 (A) 3.5 15:47:29 70° E 15:47:29 70° E 15:52:32 10° NE
NOSS 2-3 (C) 4.5 15:51:03 79° SE 15:51:05 79° SE 15:56:44 10° NE
Cosmos 2278 4.2 15:56:07 41° NNE 15:57:49 56° ENE 16:03:25 10° SE
USA 234 3.5 15:54:58 10° ENE 16:01:28 64° SSE 16:02:51 53° SSW
Cosmos 1697 Rocket 2.8 16:02:54 70° SSE 16:02:54 70° SSE 16:07:56 10° SSE
SMAP 4.1 16:00:43 10° NE 16:05:11 45° ESE 16:07:02 30° SSE
ATLAS 2AS CENTAUR R/B 4.1 16:04:40 21° S 16:05:22 21° S 16:10:13 10° SE
Cosmos 1092 Rocket 4.1 15:59:29 10° N 16:05:41 76° E 16:11:56 10° SSE
CZ-4 R/B 4.5 16:07:35 10° E 16:09:25 13° ESE 16:11:17 10° SSE
Timation 1 Rocket 4.3 16:08:50 62° SSW 16:09:55 81° ESE 16:15:58 10° NNE
CZ-4B R/B 3.3 16:04:31 10° NNE 16:10:06 76° ESE 16:12:46 33° S
Cosmos 1953 3.3 16:14:22 47° ENE 16:14:22 47° ENE 16:17:48 10° NNE
Lacrosse 5 rocket 3.1 16:16:13 24° SSE 16:16:13 24° SSE 16:18:09 10° SE
Radarsat Rocket 4.2 16:08:02 10° NNE 16:15:17 89° ESE 16:20:01 20° SSW
Cosmos 1937 Rocket 3.4 16:15:37 82° SSE 16:15:46 84° ESE 16:20:59 10° NNE
Nadezhda 4 Rocket 4.2 16:19:04 51° SSW 16:19:04 51° SSW 16:24:06 10° S
Cosmos 1025 Rocket 3.3 16:23:13 63° SE 16:23:13 63° SE 16:27:02 10° SSE
YAOGAN 6 3.7 16:19:39 10° NE 16:22:43 44° E 16:22:43 44° E
Meteor 2-13 Rocket 4.5 16:20:26 10° N 16:26:35 82° E 16:32:51 10° SSE
SJ 16-02 3.8 16:30:57 11° N 16:30:57 11° N 16:31:12 10° N
NOAA 6 4.3 16:26:38 10° N 16:30:45 50° NW 16:30:45 50° NW
H-2A R/B 4.5 16:28:34 10° S 16:29:09 13° S 16:29:09 13° S
Cosmos 2227 4.2 16:30:35 36° SSW 16:33:01 79° ESE 16:38:42 10° NNE
AQUARIUS 4.3 16:29:01 10° NNE 16:33:32 72° ESE 16:35:53 28° S
Cosmos 2360 4.1 16:33:53 49° NW 16:35:25 71° WSW 16:41:12 10° SSE
Meteor 1-16 Rocket 4.4 16:30:29 10° S 16:36:25 76° ESE 16:42:06 10° NNE
Meteor 1-21 4.3 16:35:56 52° WNW 16:36:46 57° WSW 16:42:29 10° S
ATLAS CENTAUR R/B 3.6 16:35:12 18° S 16:37:12 23° SSE 16:41:04 10° E
Cosmos 2322 Rocket 4.3 16:35:17 10° NNE 16:40:04 28° ENE 16:44:53 10° SE
Cosmos 1726 3.1 16:43:50 36° N 16:43:50 36° N 16:46:10 10° N
Cosmos 1536 Rocket 3.4 16:39:19 10° N 16:43:42 84° W 16:48:10 10° S
Cosmos 1428 Rocket 4.4 16:39:54 10° NNW 16:46:15 81° W 16:52:41 10° S
Cosmos 1674 3.5 16:46:41 10° N 16:50:21 50° E 16:54:06 10° SSE
Cosmos 2263 Rocket 2.1 16:49:22 27° SSW 16:52:39 85° WNW 16:58:23 10° NNE
Cosmos 1553 Rocket 4.0 16:46:28 10° S 16:53:01 89° W 16:59:25 10° N
Cosmos 1627 Rocket 4.4 16:47:45 10° NNW 16:53:56 64° WSW 17:00:19 10° S
Helios 1A Rocket 3.2 16:50:15 10° NNE 16:54:21 68° ESE 16:57:51 14° S
Envisat 3.0 16:52:15 10° N 16:57:19 62° W 17:01:07 18° SSW
Cosmos 2298 Rocket 4.2 16:53:44 16° SSW 16:58:06 72° ESE 17:03:25 10° NNE
Cosmos 1606 Rocket 4.2 16:53:48 10° S 16:58:09 55° ESE 17:02:26 10° NNE
NOAA 12 4.0 16:54:19 10° N 16:59:35 76° WNW 17:04:56 10° SSW
Cosmos 1461 3.4 17:03:00 36° NW 17:03:00 36° NW 17:06:11 10° N
In-Cosmos 22 4.0 16:58:38 10° NNW 17:04:09 78° WSW 17:09:38 10° S
NOSS 3-1 (C) 4.5 17:06:25 23° WNW 17:06:25 23° WNW 17:10:07 10° NNW
S3M 4.0 17:00:04 10° S 17:06:19 86° E 17:12:29 10° N
USA 267 3.3 17:01:37 10° SE 17:08:16 88° NE 17:14:36 11° WNW
Meteor 2-10 4.4 17:06:37 30° SW 17:08:23 40° W 17:13:08 10° NNW
Cosmos 2285 Rocket 4.0 17:02:16 11° SSW 17:08:31 83° WNW 17:15:00 10° NNE
ATLAS 5 CENTAUR R/B 3.8 17:02:45 10° N 17:09:30 45° ENE 17:15:45 10° SE
Cosmos 1437 2.8 17:06:45 10° N 17:09:47 71° E 17:12:52 10° SSE
Cosmos 2208 Rocket 3.9 17:05:49 10° NNW 17:11:03 85° WSW 17:16:20 10° SSE
Cosmos 2360 Rocket 4.5 17:06:34 10° NNE 17:11:11 26° ENE 17:15:50 10° SE
Cosmos 1814 Rocket 4.0 17:08:00 10° NNW 17:13:21 87° WSW 17:18:48 10° SSE
Okean O Rocket 2.4 17:10:46 10° NNW 17:14:45 31° W 17:14:45 31° W
H-2A R/B 4.2 17:11:48 10° ENE 17:15:39 23° ESE 17:19:34 10° S
Cosmos 1980 Rocket 2.4 17:14:37 16° WNW 17:18:58 47° SW 17:24:27 10° SSE
Cosmos 1763 Rocket 3.9 17:15:53 20° WNW 17:19:06 40° WSW 17:24:05 10° SSE
SKYMED 2 4.3 17:15:07 10° SSE 17:19:30 58° E 17:23:50 10° N
CORIOLIS 4.3 17:14:34 10° N 17:19:52 52° W 17:25:13 10° SSW
ARGOS Delta rocket 3.8 17:17:32 10° N 17:22:29 63° W 17:27:13 10° SSW
Cosmos 2369 4.5 17:20:46 26° W 17:22:36 31° SW 17:27:41 10° SSE
CZ-4C R/B 3.9 17:20:13 18° SW 17:23:00 23° SSW 17:27:51 10° SE
Cosmos 1726 Rocket 3.6 17:21:00 10° S 17:25:27 82° E 17:29:49 10° N
Cosmos 1844 Rocket 3.6 17:23:47 10° SSW 17:29:22 48° SE 17:34:53 10° NE
Feng Yun 1-1 Rocket 4.3 17:27:02 10° N 17:32:26 56° WNW 17:38:04 10° SSW
PSLV R/B 3.9 17:30:34 10° S 17:34:46 71° WSW 17:38:56 10° NNW
KORONAS-FOTON 3.9 17:32:47 10° NNW 17:36:32 51° WSW 17:40:22 10° S
NOSS 3-1 (A) 4.5 17:34:58 19° W 17:36:55 23° WNW 17:41:09 10° NNW
Aureole 3 Rocket 4.0 17:36:46 23° W 17:37:10 23° W 17:40:40 10° NW
Cosmos 1939 Rocket 2.9 17:36:24 10° NNE 17:40:30 85° WNW 17:44:43 10° SSW
CSL-04 Rocket 4.3 17:35:48 10° NNE 17:41:07 58° ESE 17:46:36 10° S
Cosmos 1570 Rocket 4.4 17:36:43 10° NW 17:41:52 44° WSW 17:47:04 10° SSE
Cosmos 540 Rocket 3.7 17:36:57 10° NW 17:41:58 47° WSW 17:47:02 10° SSE
Cosmos 1689 Rocket 3.0 17:39:29 10° S 17:42:10 28° WSW 17:44:50 10° NW
Cosmos 2278 4.5 17:38:08 14° WNW 17:42:18 31° SW 17:47:23 10° SSE
SMAP 4.1 17:38:52 10° NNW 17:42:43 25° W 17:45:30 15° SW
SL-16 R/B 2.2 17:37:54 10° NNW 17:43:37 87° WSW 17:49:23 10° SSE
CZ-4 R/B 1.5 17:39:31 10° NNE 17:43:45 89° E 17:48:05 10° SSW
USA 234 3.5 17:38:06 10° NE 17:44:34 57° NW 17:50:12 14° WSW
FengYun 1-2 T 4.5 17:39:26 10° N 17:44:51 50° W 17:50:24 10° SSW
Cosmos 1626 2.1 17:42:43 10° N 17:46:30 88° E 17:50:20 10° S
Cosmos 1697 Rocket 3.9 17:44:40 17° WSW 17:46:58 22° SW 17:51:19 10° S
Cosmos 841 Rocket 3.9 17:43:05 10° NW 17:48:07 41° WSW 17:53:12 10° SSE
Cosmos 2228 3.3 17:44:44 10° SSW 17:48:54 45° W 17:53:00 10° NNW
Okean-O 2.7 17:44:57 10° N 17:49:24 63° WNW 17:53:55 10° SSW
Cosmos 1953 4.0 17:50:07 16° W 17:50:07 16° W 17:52:18 10° WNW
Cosmos 2278 Rocket 4.2 17:45:49 10° S 17:50:12 22° SE 17:54:33 10° E
SL-14 R/B 3.2 17:48:46 10° N 17:52:43 86° W 17:56:43 10° S
Orbus 7S? 3.8 17:50:24 10° NW 17:53:44 88° NE 18:00:57 10° SE
Lacrosse 5 rocket 2.7 17:51:51 15° SW 17:54:15 25° S 17:57:46 10° SE
Cosmos 1908 4.2 17:52:24 12° SW 17:55:22 26° W 17:58:37 10° NNW
CZ-2D R/B 3.3 17:51:36 10° N 17:55:30 70° WNW 17:59:29 10° SSW
Cosmos 2150 Rocket 4.5 17:51:28 10° SW 17:56:37 44° WNW 18:01:39 10° N
YAOGAN 6 4.3 17:54:47 10° NW 17:56:51 15° W 17:57:04 15° W
Cosmos 1125 Rocket 3.6 17:52:00 10° SSW 17:57:17 65° WNW 18:02:28 10° N
Cosmos 2098 Rocket 4.0 17:51:50 10° NNW 17:57:36 77° W 18:04:41 10° S
ATLAS 2AS CENTAUR R/B 3.8 17:52:30 10° SW 17:58:15 33° SSE 18:04:21 10° E
Cosmos 1300 2.7 17:56:51 10° SSW 18:00:45 67° W 18:04:34 10° N
SL-24 R/B 4.1 18:02:08 10° N 18:06:27 69° WNW 18:11:03 10° SSW
COSMO-SKYMED 1 2.8 18:03:17 10° S 18:07:34 48° WSW 18:11:48 10° NW
ASTEX 1 4.2 18:03:51 10° NNW 18:08:10 30° W 18:12:34 10° SSW
Meteor 1-24 Rocket 3.6 18:02:51 10° NNW 18:08:13 71° WSW 18:13:38 10° S
ADEOS Rocket 3.1 18:04:30 10° S 18:09:44 42° WSW 18:14:58 10° NW
Cosmos 1818 3.6 18:04:56 10° NW 18:10:22 84° SW 18:15:51 10° SE
Cosmos 1892 Rocket 3.7 18:06:22 10° NNW 18:10:47 54° WSW 18:15:14 10° S
Cosmos 1455 3.8 18:10:46 10° S 18:14:21 36° ESE 18:17:52 10° NE
SL-24 R/B - RUBIN 2 4.2 18:09:50 10° NNW 18:14:31 63° NE 18:18:51 10° SE
Cosmos 1655 Rocket 4.4 18:09:05 10° NW 18:14:56 40° WSW 18:20:51 10° S
ATLAS CENTAUR R/B 1.8 18:11:56 10° SW 18:16:49 86° SE 18:21:42 10° NE
YAOGAN 1 2.9 18:15:51 10° N 18:20:04 48° W 18:24:23 10° SSW
Cosmos 1356 Rocket 4.1 18:17:19 10° SSW 18:21:08 35° W 18:24:59 10° NNW
Cosmos 2266 Rocket 4.3 18:15:44 10° NNW 18:21:46 46° WSW 18:27:47 10° S
Cosmos 1626 Rocket 3.9 18:17:40 10° N 18:22:01 74° E 18:26:26 10° SSE
Meteor 2-5 Rocket 4.1 18:18:19 10° NW 18:23:37 43° WSW 18:28:59 10° S
Cosmos 2322 Rocket 2.3 18:18:10 10° NW 18:23:48 56° WSW 18:29:28 10° SSE
SJ-6B 4.4 18:20:32 10° NE 18:24:00 34° ESE 18:27:29 10° S
Cosmos 1674 4.3 18:23:56 10° WNW 18:26:12 15° WSW 18:28:31 10° SSW
USA 186 2.8 18:24:35 10° NE 18:27:02 38° ESE 18:29:40 10° S
Cosmos 2058 Rocket 3.7 18:23:43 10° SSW 18:27:50 37° W 18:31:56 10° NNW
